Weather History for Sanford, ME

Change the Weather History Date:

Sunday, February 16, 2014

  Actual Average Record
Temperature  
Mean Temperature 22 °F -  
Max Temperature 28 °F 32 °F 55 °F (2006)
Min Temperature 15 °F 14 °F -11 °F (2003)
Degree Days  
Heating Degree Days 44    
Moisture  
Dew Point 7 °F    
Average Humidity 53    
Maximum Humidity 93    
Minimum Humidity 36    
Precipitation  
Precipitation 0.00 in - - ()
Sea Level Pressure  
Sea Level Pressure 29.66 in    
Wind  
Wind Speed 14 mph (WNW)    
Max Wind Speed 26 mph    
Max Gust Speed 34 mph    
Visibility 8 miles    
Events      
Averages and records for this station are not official NWS values.
T = Trace of Precipitation, MM = Missing Value Source: NWS Daily Summary

Daily Weather History Graph

Daily Weather History Graph

Search for Another Location

Airport:

Trip Planner

Search our weather history database for the weather conditions in past years. The results will help you decide how hot, cold, wet, or windy it might be!

Date:

Astronomy

Feb. 16, 2014 Rise Set
Actual Time 6:39 AM EST 5:14 PM EST
Civil Twilight 6:10 AM EST 5:44 PM EST
Nautical Twilight 5:36 AM EST 6:17 PM EST
Astronomical Twilight 5:03 AM EST 6:50 PM EST
Moon 7:13 PM EST (2/16) 7:03 AM EST (2/16)
Length of Visible Light 11h 33m
Length of Day
10h 35m
Full, 97% of the Moon is Illuminated
Feb 16
Full
Feb 22
Last Quarter
Mar 1
New
Mar 8
First Quarter
Mar 16
Full

Hourly Weather History & Observations

Time (EST) Temp. Windchill Dew Point Humidity Pressure Visibility Wind Dir Wind Speed Gust Speed Precip Events Conditions
12:15 AM 26.6 °F 16.2 °F 24.8 °F 93% 29.46 in 2.5 mi NNW 11.5 mph 19.6 mph N/A   Overcast
12:35 AM 26.6 °F 15.2 °F 21.2 °F 80% 29.45 in 2.0 mi NNW 13.8 mph - N/A   Overcast
12:55 AM 28.4 °F 17.0 °F 24.8 °F 86% 29.44 in 2.0 mi NNW 15.0 mph 20.7 mph N/A   Overcast
1:15 AM 28.4 °F 19.1 °F 23.0 °F 80% 29.44 in 3.0 mi NNW 10.4 mph - N/A   Overcast
1:35 AM 28.4 °F 18.0 °F 21.2 °F 74% 29.43 in 4.0 mi NW 12.7 mph 18.4 mph N/A   Overcast
1:55 AM 28.4 °F 19.1 °F 24.8 °F 86% 29.43 in 5.0 mi NW 10.4 mph - N/A   Overcast
2:15 AM 28.4 °F 17.0 °F 19.4 °F 69% 29.43 in 8.0 mi NW 15.0 mph 25.3 mph N/A   Mostly Cloudy
2:35 AM 28.4 °F 17.5 °F 19.4 °F 69% 29.42 in 10.0 mi WNW 13.8 mph 20.7 mph N/A   Partly Cloudy
2:55 AM 28.4 °F 18.5 °F 19.4 °F 69% 29.43 in 10.0 mi West 11.5 mph 23.0 mph N/A   Clear
3:15 AM 26.6 °F 15.2 °F 15.8 °F 64% 29.44 in 8.0 mi WNW 13.8 mph 25.3 mph N/A   Clear
3:35 AM 24.8 °F 12.4 °F 19.4 °F 80% 29.45 in 10.0 mi WNW 15.0 mph 23.0 mph N/A   Partly Cloudy
3:55 AM 24.8 °F 12.9 °F 10.4 °F 54% 29.46 in 10.0 mi WNW 13.8 mph 19.6 mph N/A   Clear
4:15 AM 24.8 °F 12.9 °F 12.2 °F 59% 29.48 in 10.0 mi WNW 13.8 mph 24.2 mph N/A   Clear
4:35 AM 23.0 °F 10.1 °F 15.8 °F 74% 29.48 in 10.0 mi WNW 15.0 mph 20.7 mph N/A   Clear
4:55 AM 21.2 °F 8.3 °F 3.2 °F 46% 29.50 in 10.0 mi West 13.8 mph 25.3 mph N/A   Clear
5:15 AM 21.2 °F 7.3 °F 15.8 °F 80% 29.51 in 9.0 mi West 16.1 mph 24.2 mph N/A   Clear
5:35 AM 21.2 °F 7.8 °F 10.4 °F 63% 29.51 in 10.0 mi WNW 15.0 mph 24.2 mph N/A   Clear
5:55 AM 19.4 °F 6.0 °F -0.4 °F 42% 29.52 in 10.0 mi West 13.8 mph 24.2 mph N/A   Clear
6:15 AM 19.4 °F 4.1 °F 15.8 °F 86% 29.52 in 6.0 mi West 18.4 mph 25.3 mph N/A   Clear
6:35 AM 19.4 °F 3.6 °F 3.2 °F 49% 29.54 in 5.0 mi West 19.6 mph 27.6 mph N/A   Clear
6:55 AM 19.4 °F 4.1 °F 3.2 °F 49% 29.56 in 8.0 mi West 18.4 mph 23.0 mph N/A   Clear
7:15 AM 19.4 °F 7.9 °F 10.4 °F 68% 29.57 in 10.0 mi West 10.4 mph 20.7 mph N/A   Clear
7:35 AM 19.4 °F 3.6 °F 6.8 °F 58% 29.58 in 5.0 mi West 19.6 mph 25.3 mph N/A   Clear
7:55 AM 19.4 °F 2.8 °F 8.6 °F 63% 29.59 in 2.5 mi WNW 21.9 mph 28.8 mph N/A   Clear
8:15 AM 19.4 °F 5.0 °F 3.2 °F 49% 29.60 in 5.0 mi West 16.1 mph 24.2 mph N/A   Clear
8:35 AM 19.4 °F 3.6 °F 8.6 °F 63% 29.61 in 3.0 mi West 19.6 mph 27.6 mph N/A   Clear
8:55 AM 19.4 °F 5.0 °F 3.2 °F 49% 29.63 in 4.0 mi West 16.1 mph 24.2 mph N/A   Clear
9:15 AM 19.4 °F 5.5 °F 8.6 °F 63% 29.64 in 8.0 mi West 15.0 mph 23.0 mph N/A   Clear
9:35 AM 21.2 °F 6.4 °F 1.4 °F 42% 29.64 in 5.0 mi West 18.4 mph 25.3 mph N/A   Clear
9:55 AM 21.2 °F 7.3 °F 8.6 °F 58% 29.65 in 10.0 mi West 16.1 mph 25.3 mph N/A   Clear
10:15 AM 21.2 °F 7.3 °F 3.2 °F 46% 29.66 in 6.0 mi West 16.1 mph 26.5 mph N/A   Clear
10:35 AM 21.2 °F 7.8 °F 6.8 °F 54% 29.66 in 4.0 mi WNW 15.0 mph 29.9 mph N/A   Clear
10:55 AM 21.2 °F 6.0 °F 6.8 °F 54% 29.66 in 7.0 mi West 19.6 mph 26.5 mph N/A   Clear
11:15 AM 21.2 °F 5.2 °F 6.8 °F 54% 29.67 in 2.0 mi West 21.9 mph 33.4 mph N/A   Clear
11:35 AM 23.0 °F 9.2 °F 10.4 °F 59% 29.67 in 4.0 mi West 17.3 mph 28.8 mph N/A   Clear
11:55 AM 23.0 °F 10.6 °F 3.2 °F 43% 29.68 in 10.0 mi WNW 13.8 mph 23.0 mph N/A   Clear
12:15 PM 24.8 °F 14.0 °F 5.0 °F 43% 29.68 in 10.0 mi WNW 11.5 mph 28.8 mph N/A   Clear
12:35 PM 24.8 °F 12.4 °F 3.2 °F 40% 29.67 in 10.0 mi West 15.0 mph 24.2 mph N/A   Clear
12:55 PM 24.8 °F 8.7 °F 3.2 °F 40% 29.67 in 1.5 mi West 26.5 mph 34.5 mph N/A   Clear
1:15 PM 24.8 °F 11.5 °F 6.8 °F 46% 29.69 in 2.5 mi WNW 17.3 mph 33.4 mph N/A   Clear
1:35 PM 24.8 °F 11.9 °F 3.2 °F 40% 29.69 in 7.0 mi West 16.1 mph 29.9 mph N/A   Clear
1:55 PM 24.8 °F 10.0 °F 6.8 °F 46% 29.69 in 3.0 mi WNW 21.9 mph 32.2 mph N/A   Clear
2:15 PM 24.8 °F 10.7 °F 5.0 °F 43% 29.70 in 3.0 mi West 19.6 mph 29.9 mph N/A   Clear
2:35 PM 24.8 °F 10.3 °F 3.2 °F 40% 29.71 in 5.0 mi West 20.7 mph 32.2 mph N/A   Clear
2:55 PM 24.8 °F 11.1 °F 6.8 °F 46% 29.71 in 7.0 mi West 18.4 mph 33.4 mph N/A   Clear
3:15 PM 24.8 °F 12.9 °F 3.2 °F 40% 29.72 in 4.0 mi NW 13.8 mph 31.1 mph N/A   Clear
3:35 PM 24.8 °F 14.6 °F 3.2 °F 40% 29.73 in 9.0 mi WNW 10.4 mph 25.3 mph N/A   Clear
3:55 PM 24.8 °F 16.1 °F 5.0 °F 43% 29.73 in 10.0 mi WNW 8.1 mph 21.9 mph N/A   Clear
4:15 PM 24.8 °F 16.1 °F 1.4 °F 36% 29.74 in 10.0 mi West 8.1 mph 18.4 mph N/A   Clear
4:35 PM 24.8 °F 16.9 °F 5.0 °F 43% 29.75 in 10.0 mi West 6.9 mph 17.3 mph N/A   Clear
4:55 PM 24.8 °F 12.4 °F 3.2 °F 40% 29.76 in 10.0 mi WNW 15.0 mph 23.0 mph N/A   Clear
5:15 PM 24.8 °F 16.9 °F 1.4 °F 36% 29.77 in 10.0 mi West 6.9 mph 16.1 mph N/A   Clear
5:35 PM 23.0 °F 18.4 °F 3.2 °F 43% 29.78 in 10.0 mi WNW 3.5 mph - N/A   Clear
5:55 PM 23.0 °F 12.4 °F -0.4 °F 36% 29.79 in 10.0 mi NW 10.4 mph - N/A   Clear
6:15 PM 21.2 °F 10.1 °F 3.2 °F 46% 29.80 in 10.0 mi WNW 10.4 mph 18.4 mph N/A   Clear
6:35 PM 21.2 °F 8.3 °F 1.4 °F 42% 29.80 in 10.0 mi West 13.8 mph 17.3 mph N/A   Clear
6:55 PM 21.2 °F 8.9 °F 1.4 °F 42% 29.80 in 10.0 mi West 12.7 mph 19.6 mph N/A   Clear
7:15 PM 21.2 °F 9.5 °F 1.4 °F 42% 29.81 in 10.0 mi West 11.5 mph - N/A   Clear
7:35 PM 21.2 °F 10.1 °F -0.4 °F 39% 29.81 in 10.0 mi West 10.4 mph - N/A   Clear
7:55 PM 21.2 °F 12.6 °F 3.2 °F 46% 29.82 in 10.0 mi WNW 6.9 mph - N/A   Clear
8:15 PM 21.2 °F 12.6 °F -0.4 °F 39% 29.83 in 10.0 mi WNW 6.9 mph 16.1 mph N/A   Clear
8:35 PM 19.4 °F 9.5 °F 1.4 °F 46% 29.84 in 10.0 mi WNW 8.1 mph 17.3 mph N/A   Clear
8:55 PM 19.4 °F 7.2 °F -0.4 °F 42% 29.84 in 10.0 mi West 11.5 mph - N/A   Clear
9:15 PM 19.4 °F 5.0 °F 1.4 °F 46% 29.84 in 10.0 mi West 16.1 mph - N/A   Clear
9:35 PM 19.4 °F 6.6 °F -0.4 °F 42% 29.86 in 10.0 mi West 12.7 mph 20.7 mph N/A   Partly Cloudy
9:55 PM 19.4 °F 6.0 °F -0.4 °F 42% 29.87 in 10.0 mi West 13.8 mph 19.6 mph N/A   Mostly Cloudy
10:15 PM 19.4 °F 7.9 °F -0.4 °F 42% 29.88 in 10.0 mi WNW 10.4 mph 19.6 mph N/A   Scattered Clouds
10:35 PM 19.4 °F 7.2 °F -2.2 °F 39% 29.89 in 10.0 mi WNW 11.5 mph 19.6 mph N/A   Mostly Cloudy
10:55 PM 17.6 °F 5.0 °F -2.2 °F 42% 29.89 in 10.0 mi WNW 11.5 mph - N/A   Overcast
11:15 PM 17.6 °F 4.3 °F -2.2 °F 42% 29.90 in 10.0 mi West 12.7 mph 18.4 mph N/A   Mostly Cloudy
11:35 PM 15.8 °F 4.2 °F -2.2 °F 45% 29.91 in 10.0 mi WNW 9.2 mph - N/A   Overcast
11:55 PM 15.8 °F 5.1 °F -2.2 °F 45% 29.91 in 10.0 mi WNW 8.1 mph - N/A   Overcast